| time (UTC) | temp F | wind direction | speed knots | gust knots | rain 1hr in | rain 24hr in | rain mn in | humidity % | barometer mb |
| 20260502161633 | 62 | 273 | 2.6 | 6.1 | 0.00 | 0.00 | 0.00 | 34 | 1020.5 |
| 20260502160655 | 62 | 298 | 2.6 | 4.3 | 0.00 | 0.00 | 0.00 | 34 | 1020.5 |
| 20260502151625 | 58 | 5 | 2.6 | 4.3 | 0.00 | 0.00 | 0.00 | 34 | 1020.7 |
| 20260502150627 | 58 | 360 | 2.6 | 4.3 | 0.00 | 0.00 | 0.00 | 37 | 1020.7 |
| 20260502130618 | 45 | 88 | 0.0 | 0.0 | 0.00 | 0.00 | 0.00 | 57 | 1020.5 |
| 20260502123645 | 45 | 88 | 0.0 | 0.0 | 0.00 | 0.00 | 0.00 | 59 | 1020.3 |
| 20260502122623 | 45 | 88 | 0.9 | 1.7 | 0.00 | 0.00 | 0.00 | 60 | 1020.3 |
| 20260502121628 | 45 | 88 | 0.0 | 1.7 | 0.00 | 0.00 | 0.00 | 60 | 1020.1 |
| 20260502120643 | 46 | 88 | 0.0 | 2.6 | 0.00 | 0.00 | 0.00 | 61 | 1020.2 |
| 20260502115624 | 45 | 88 | 0.0 | 1.7 | 0.00 | 0.00 | 0.00 | 61 | 1020.0 |
| 20260502114625 | 46 | 88 | 0.0 | 1.7 | 0.00 | 0.00 | 0.00 | 61 | 1020.2 |
| 20260502113626 | 46 | 83 | 0.0 | 0.0 | 0.00 | 0.00 | 0.00 | 60 | 1020.2 |
| 20260502112632 | 46 | 83 | 0.0 | 2.6 | 0.00 | 0.00 | 0.00 | 60 | 1020.2 |
| 20260502111633 | 46 | 83 | 3.5 | 6.1 | 0.00 | 0.00 | 0.00 | 59 | 1020.2 |
| 20260502110616 | 46 | 313 | 0.9 | 3.5 | 0.00 | 0.00 | 0.00 | 58 | 1020.3 |
| 20260502105618 | 46 | 274 | 0.0 | 2.6 | 0.00 | 0.00 | 0.00 | 58 | 1020.3 |
| 20260502104624 | 46 | 274 | 1.7 | 5.2 | 0.00 | 0.00 | 0.00 | 56 | 1020.3 |
| 20260502103625 | 47 | 134 | 0.0 | 0.0 | 0.00 | 0.00 | 0.00 | 57 | 1020.3 |
| 20260502102647 | 47 | 134 | 0.0 | 0.0 | 0.00 | 0.00 | 0.00 | 57 | 1020.3 |
| 20260502101627 | 48 | 134 | 0.0 | 1.7 | 0.00 | 0.00 | 0.00 | 56 | 1020.2 |
| 20260502100626 | 48 | 135 | 1.7 | 3.5 | 0.00 | 0.00 | 0.00 | 57 | 1019.9 |
| 20260502090626 | 48 | 274 | 2.6 | 3.5 | 0.00 | 0.00 | 0.00 | 59 | 1019.8 |
| 20260502070625 | 50 | 65 | 0.9 | 2.6 | 0.00 | 0.00 | 0.00 | 55 | 1019.9 |
| 20260502065626 | 50 | 65 | 2.6 | 4.3 | 0.00 | 0.00 | 0.00 | 55 | 1019.8 |
| 20260502064627 | 51 | 167 | 0.9 | 2.6 | 0.00 | 0.00 | 0.00 | 53 | 1019.8 |
| 20260502063631 | 51 | 166 | 2.6 | 2.6 | 0.00 | 0.00 | 0.00 | 51 | 1019.7 |
| 20260502062633 | 51 | 175 | 0.0 | 0.0 | 0.00 | 0.00 | 0.00 | 52 | 1019.7 |
| 20260502061635 | 51 | 175 | 0.0 | 0.0 | 0.00 | 0.00 | 0.00 | 52 | 1019.8 |
| 20260502060652 | 52 | 175 | 0.0 | 2.6 | 0.00 | 0.00 | 0.00 | 55 | 1019.8 |
| 20260502055633 | 53 | 175 | 2.6 | 2.6 | 0.00 | 0.00 | 0.00 | 51 | 1019.7 |
| 20260502054654 | 54 | 155 | 0.0 | 1.7 | 0.00 | 0.00 | 0.00 | 44 | 1019.6 |
| 20260502053619 | 54 | 156 | 0.9 | 2.6 | 0.00 | 0.00 | 0.00 | 45 | 1019.7 |
| 20260502052620 | 56 | 135 | 0.0 | 1.7 | 0.00 | 0.00 | 0.00 | 38 | 1019.6 |
| 20260502051621 | 56 | 134 | 0.0 | 1.7 | 0.00 | 0.00 | 0.00 | 38 | 1019.6 |
| 20260502050643 | 57 | 135 | 0.9 | 2.6 | 0.00 | 0.00 | 0.00 | 38 | 1019.5 |
| 20260502045625 | 57 | 134 | 0.9 | 3.5 | 0.00 | 0.00 | 0.00 | 38 | 1019.6 |
| 20260502044629 | 57 | 135 | 1.7 | 3.5 | 0.00 | 0.00 | 0.00 | 38 | 1019.6 |
| 20260502043632 | 57 | 135 | 1.7 | 3.5 | 0.00 | 0.00 | 0.00 | 37 | 1019.6 |
| 20260502042652 | 57 | 136 | 1.7 | 4.3 | 0.00 | 0.00 | 0.00 | 38 | 1019.5 |
| 20260502041632 | 57 | 135 | 2.6 | 4.3 | 0.00 | 0.00 | 0.00 | 42 | 1019.5 |
| 20260502040618 | 58 | 126 | 2.6 | 3.5 | 0.00 | 0.00 | 0.00 | 41 | 1019.5 |
| 20260502035622 | 58 | 91 | 2.6 | 2.6 | 0.00 | 0.00 | 0.00 | 40 | 1019.4 |
| 20260502034642 | 59 | 53 | 0.0 | 1.7 | 0.00 | 0.00 | 0.00 | 40 | 1019.3 |
| 20260502033623 | 59 | 53 | 0.9 | 1.7 | 0.00 | 0.00 | 0.00 | 40 | 1019.2 |
| 20260502032625 | 59 | 53 | 0.0 | 0.0 | 0.00 | 0.00 | 0.00 | 40 | 1019.1 |
| 20260502031630 | 60 | 53 | 0.0 | 2.6 | 0.00 | 0.00 | 0.00 | 40 | 1019.0 |
| 20260502030632 | 60 | 53 | 0.9 | 3.5 | 0.00 | 0.00 | 0.00 | 39 | 1018.8 |
| 20260502025635 | 60 | 42 | 1.7 | 2.6 | 0.00 | 0.00 | 0.00 | 38 | 1018.7 |
| 20260502024617 | 60 | 349 | 0.9 | 1.7 | 0.00 | 0.00 | 0.00 | 38 | 1018.5 |
| 20260502023621 | 61 | 348 | 0.0 | 3.5 | 0.00 | 0.00 | 0.00 | 40 | 1018.5 |
| 20260502022624 | 61 | 351 | 2.6 | 4.3 | 0.00 | 0.00 | 0.00 | 37 | 1018.5 |
| 20260502021627 | 62 | 360 | 3.5 | 3.5 | 0.00 | 0.00 | 0.00 | 37 | 1018.4 |
| 20260502020629 | 63 | 14 | 3.5 | 8.7 | 0.00 | 0.00 | 0.00 | 37 | 1018.4 |
| 20260502015649 | 64 | 24 | 3.5 | 6.1 | 0.00 | 0.00 | 0.00 | 35 | 1018.3 |
| 20260502014628 | 65 | 276 | 1.7 | 3.5 | 0.00 | 0.00 | 0.00 | 37 | 1018.2 |
| 20260502013631 | 65 | 261 | 4.3 | 7.0 | 0.00 | 0.00 | 0.00 | 34 | 1018.1 |
| 20260502012632 | 65 | 269 | 3.5 | 8.7 | 0.00 | 0.00 | 0.00 | 33 | 1018.0 |
| 20260502011652 | 65 | 279 | 6.1 | 8.7 | 0.00 | 0.00 | 0.00 | 32 | 1018.0 |
| 20260502010631 | 65 | 283 | 7.0 | 10.4 | 0.00 | 0.00 | 0.00 | 32 | 1017.9 |
| 20260502005630 | 66 | 282 | 7.8 | 10.4 | 0.00 | 0.00 | 0.00 | 33 | 1017.9 |
| 20260502004635 | 66 | 284 | 6.1 | 10.4 | 0.00 | 0.00 | 0.00 | 31 | 1017.9 |
| 20260502003655 | 66 | 280 | 7.8 | 11.3 | 0.00 | 0.00 | 0.00 | 31 | 1017.8 |
| 20260502002635 | 66 | 286 | 5.2 | 12.2 | 0.00 | 0.00 | 0.00 | 32 | 1017.9 |
| 20260502001655 | 66 | 300 | 7.0 | 11.3 | 0.00 | 0.00 | 0.00 | 31 | 1018.1 |
| 20260502000628 | 66 | 302 | 8.7 | 12.2 | 0.00 | 0.00 | 0.00 | 31 | 1018.0 |
| 20260501235631 | 66 | 277 | 7.8 | 11.3 | 0.00 | 0.00 | 0.00 | 30 | 1018.1 |
| 20260501234618 | 66 | 320 | 7.8 | 11.3 | 0.00 | 0.00 | 0.00 | 32 | 1018.1 |
| 20260501233619 | 66 | 303 | 7.0 | 12.2 | 0.00 | 0.00 | 0.00 | 32 | 1018.2 |
| 20260501232622 | 66 | 328 | 7.8 | 13.0 | 0.00 | 0.00 | 0.00 | 31 | 1018.2 |
| 20260501231623 | 66 | 285 | 7.0 | 12.2 | 0.00 | 0.00 | 0.00 | 31 | 1018.2 |
| 20260501230630 | 66 | 313 | 7.8 | 13.9 | 0.00 | 0.00 | 0.00 | 31 | 1018.3 |
| 20260501225630 | 66 | 284 | 8.7 | 13.0 | 0.00 | 0.00 | 0.00 | 31 | 1018.3 |
| 20260501224631 | 66 | 297 | 9.6 | 14.8 | 0.00 | 0.00 | 0.00 | 30 | 1018.4 |
| 20260501223630 | 66 | 275 | 7.8 | 12.2 | 0.00 | 0.00 | 0.00 | 32 | 1018.5 |
| 20260501222631 | 66 | 305 | 7.0 | 13.0 | 0.00 | 0.00 | 0.00 | 30 | 1018.6 |
| 20260501221616 | 66 | 279 | 7.8 | 12.2 | 0.00 | 0.00 | 0.00 | 30 | 1018.7 |
| 20260501220640 | 65 | 265 | 7.0 | 13.0 | 0.00 | 0.00 | 0.00 | 29 | 1018.8 |
| 20260501215622 | 65 | 303 | 8.7 | 13.9 | 0.00 | 0.00 | 0.00 | 28 | 1018.9 |
| 20260501214622 | 65 | 294 | 9.6 | 13.0 | 0.00 | 0.00 | 0.00 | 28 | 1019.0 |
| 20260501213628 | 65 | 256 | 7.8 | 13.9 | 0.00 | 0.00 | 0.00 | 28 | 1019.0 |
| 20260501212628 | 65 | 266 | 8.7 | 14.8 | 0.00 | 0.00 | 0.00 | 28 | 1019.1 |
| 20260501211648 | 65 | 309 | 9.6 | 13.9 | 0.00 | 0.00 | 0.00 | 28 | 1019.1 |
| 20260501210627 | 65 | 284 | 8.7 | 13.9 | 0.00 | 0.00 | 0.00 | 28 | 1019.2 |
| 20260501205630 | 65 | 286 | 10.4 | 14.8 | 0.00 | 0.00 | 0.00 | 29 | 1019.1 |
| 20260501204631 | 65 | 273 | 8.7 | 13.0 | 0.00 | 0.00 | 0.00 | 26 | 1019.1 |
| 20260501203656 | 65 | 260 | 7.0 | 12.2 | 0.00 | 0.00 | 0.00 | 28 | 1019.0 |
| 20260501202617 | 65 | 327 | 7.8 | 12.2 | 0.00 | 0.00 | 0.00 | 25 | 1019.0 |
| 20260501201619 | 65 | 338 | 7.0 | 10.4 | 0.00 | 0.00 | 0.00 | 24 | 1019.1 |
| 20260501200620 | 64 | 308 | 8.7 | 12.2 | 0.00 | 0.00 | 0.00 | 25 | 1019.1 |
| 20260501195624 | 64 | 258 | 6.1 | 10.4 | 0.00 | 0.00 | 0.00 | 23 | 1019.1 |
| 20260501194625 | 64 | 277 | 7.8 | 12.2 | 0.00 | 0.00 | 0.00 | 24 | 1019.2 |
| 20260501193627 | 64 | 275 | 6.1 | 11.3 | 0.00 | 0.00 | 0.00 | 25 | 1019.3 |
| 20260501192629 | 63 | 311 | 7.8 | 10.4 | 0.00 | 0.00 | 0.00 | 23 | 1019.4 |
| 20260501191630 | 63 | 309 | 4.3 | 11.3 | 0.00 | 0.00 | 0.00 | 24 | 1019.5 |
| 20260501190617 | 63 | 325 | 6.1 | 9.6 | 0.00 | 0.00 | 0.00 | 21 | 1019.6 |
| 20260501185618 | 63 | 232 | 6.1 | 8.7 | 0.00 | 0.00 | 0.00 | 21 | 1019.8 |
| 20260501184639 | 62 | 261 | 5.2 | 8.7 | 0.00 | 0.00 | 0.00 | 21 | 1019.8 |
| 20260501183641 | 62 | 263 | 5.2 | 9.6 | 0.00 | 0.00 | 0.00 | 21 | 1020.0 |
| 20260501182621 | 62 | 192 | 5.2 | 11.3 | 0.00 | 0.00 | 0.00 | 20 | 1020.0 |
| 20260501181643 | 62 | 232 | 4.3 | 9.6 | 0.00 | 0.00 | 0.00 | 21 | 1020.2 |
| 20260501180634 | 62 | 293 | 5.2 | 8.7 | 0.00 | 0.00 | 0.00 | 20 | 1020.2 |
| 20260501175641 | 61 | 122 | 2.6 | 7.8 | 0.00 | 0.00 | 0.00 | 19 | 1020.3 |
| 20260501174621 | 61 | 53 | 1.7 | 11.3 | 0.00 | 0.00 | 0.00 | 22 | 1020.5 |
| 20260501173642 | 61 | 15 | 6.1 | 11.3 | 0.00 | 0.00 | 0.00 | 24 | 1020.5 |
| 20260501172641 | 60 | 79 | 3.5 | 13.9 | 0.00 | 0.00 | 0.00 | 22 | 1020.5 |
| 20260501171621 | 61 | 355 | 4.3 | 8.7 | 0.00 | 0.00 | 0.00 | 22 | 1020.6 |
| 20260501170624 | 60 | 240 | 2.6 | 8.7 | 0.00 | 0.00 | 0.00 | 25 | 1020.7 |
| 20260501165628 | 60 | 273 | 3.5 | 10.4 | 0.00 | 0.00 | 0.00 | 27 | 1020.6 |
| 20260501164627 | 60 | 73 | 1.7 | 7.0 | 0.00 | 0.00 | 0.00 | 23 | 1020.6 |
| 20260501163629 | 59 | 286 | 1.7 | 7.0 | 0.00 | 0.00 | 0.00 | 26 | 1020.6 |
| 20260501162630 | 59 | 59 | 0.9 | 4.3 | 0.00 | 0.00 | 0.00 | 25 | 1020.5 |